[Date Prev][Date Next][Thread Prev][Thread Next] - [Date Index][Thread Index][Author Index]

2 Line ISS Keps 9-27



ISS
1 25544U 98067A   03270.21789818  .00020692  00000-0  23103-3 0  5634
2 25544  51.6294 226.1670 0005624 295.5067 197.7716 15.62730746276941


----
Via the sarex mailing list at AMSAT.ORG courtesy of AMSAT-NA.
To unsubscribe, send "unsubscribe sarex" to Majordomo@amsat.org



AMSAT Top AMSAT Home